Hourly Weather Golaszow

Today, 7 May, Friday

Time Temperature Precipitation Wind Pressure Humidity
00:00 +6°C° 0.7 mm 2 mps 741 mmHg 90%
01:00 +6°C° 0.7 mm 2 mps 741 mmHg 94%
02:00 +7°C° 0.8 mm 1 mps 741 mmHg 94%
03:00 +7°C° 0.8 mm 1 mps 740 mmHg 95%
04:00 +7°C° 0.8 mm 1 mps 740 mmHg 95%
05:00 +7°C° 0.3 mm 1 mps 740 mmHg 94%
06:00 +7°C° 0.3 mm 1 mps 740 mmHg 93%
07:00 +7°C° 0.3 mm 1 mps 741 mmHg 93%
08:00 +6°C° 0.4 mm 2 mps 741 mmHg 93%
09:00 +6°C° 0.4 mm 2 mps 741 mmHg 93%
10:00 +6°C° 0.4 mm 2 mps 742 mmHg 93%
11:00 +5°C° 0.4 mm 4 mps 742 mmHg 93%
12:00 +3°C° 0.4 mm 5 mps 743 mmHg 94%
13:00 +3°C° 0.4 mm 6 mps 743 mmHg 95%
14:00 +4°C° 0.1 mm 6 mps 744 mmHg 90%
15:00 +4°C° 0.1 mm 6 mps 744 mmHg 85%
16:00 +5°C° 0.1 mm 7 mps 745 mmHg 80%
17:00 +4°C° 0.1 mm 6 mps 745 mmHg 80%
18:00 +5°C° 0.1 mm 5 mps 746 mmHg 80%
19:00 +4°C° 0.1 mm 4 mps 747 mmHg 81%
20:00 +3°C° 0 mm 5 mps 747 mmHg 83%
21:00 +2°C° 0 mm 5 mps 748 mmHg 86%
22:00 +2°C° 0 mm 5 mps 748 mmHg 88%
23:00 +1°C° 0 mm 5 mps 749 mmHg 89%

Tomorrow, 8 May, Saturday

Time Temperature Precipitation Wind Pressure Humidity
00:00 +1°C° 0 mm 5 mps 749 mmHg 91%
01:00 +1°C° 0 mm 4 mps 750 mmHg 93%
02:00 0°C° 0 mm 4 mps 750 mmHg 93%
03:00 0°C° 0 mm 4 mps 750 mmHg 94%
04:00 -1°C° 0 mm 4 mps 750 mmHg 94%
05:00 +1°C° 0 mm 4 mps 751 mmHg 89%
06:00 +3°C° 0 mm 4 mps 751 mmHg 84%
07:00 +3°C° 0 mm 5 mps 752 mmHg 79%
08:00 +6°C° 0 mm 5 mps 752 mmHg 71%
09:00 +8°C° 0 mm 5 mps 752 mmHg 63%
10:00 +9°C° 0 mm 5 mps 752 mmHg 55%
11:00 +10°C° 0 mm 5 mps 752 mmHg 51%
12:00 +12°C° 0 mm 5 mps 752 mmHg 47%
13:00 +12°C° 0 mm 5 mps 751 mmHg 43%
14:00 +12°C° 0 mm 4 mps 751 mmHg 44%
15:00 +13°C° 0 mm 3 mps 751 mmHg 45%
16:00 +13°C° 0 mm 3 mps 751 mmHg 45%
17:00 +11°C° 0 mm 3 mps 751 mmHg 53%
18:00 +10°C° 0 mm 2 mps 751 mmHg 60%
19:00 +9°C° 0 mm 2 mps 751 mmHg 68%
20:00 +8°C° 0 mm 2 mps 751 mmHg 70%
21:00 +7°C° 0 mm 3 mps 751 mmHg 72%
22:00 +5°C° 0 mm 3 mps 751 mmHg 74%
23:00 +5°C° 0 mm 3 mps 751 mmHg 75%

Day after tomorrow, 9 May, Sunday

Time Temperature Precipitation Wind Pressure Humidity
00:00 +5°C° 0 mm 3 mps 751 mmHg 76%
01:00 +4°C° 0 mm 4 mps 751 mmHg 77%
02:00 +4°C° 0 mm 4 mps 751 mmHg 76%
03:00 +4°C° 0 mm 4 mps 750 mmHg 75%
04:00 +4°C° 0 mm 4 mps 750 mmHg 75%
05:00 +5°C° 0 mm 4 mps 750 mmHg 73%
06:00 +7°C° 0 mm 4 mps 750 mmHg 72%
07:00 +10°C° 0 mm 4 mps 749 mmHg 70%
08:00 +12°C° 0 mm 5 mps 749 mmHg 66%
09:00 +14°C° 0 mm 5 mps 749 mmHg 61%
10:00 +16°C° 0 mm 5 mps 749 mmHg 57%
11:00 +17°C° 0 mm 6 mps 749 mmHg 56%
12:00 +19°C° 0 mm 6 mps 749 mmHg 55%
13:00 +20°C° 0 mm 6 mps 749 mmHg 54%
14:00 +20°C° 0 mm 6 mps 748 mmHg 56%
15:00 +20°C° 0 mm 6 mps 748 mmHg 59%
16:00 +20°C° 0 mm 6 mps 748 mmHg 62%
17:00 +19°C° 0 mm 6 mps 748 mmHg 64%
18:00 +16°C° 0 mm 6 mps 748 mmHg 67%
19:00 +14°C° 0 mm 5 mps 747 mmHg 70%
20:00 +13°C° 0 mm 5 mps 747 mmHg 70%
21:00 +13°C° 0 mm 5 mps 747 mmHg 69%
22:00 +12°C° 0 mm 5 mps 747 mmHg 69%
23:00 +10°C° 0 mm 5 mps 747 mmHg 70%

10 May, Monday

Time Temperature Precipitation Wind Pressure Humidity
00:00 +10°C° 0 mm 4 mps 747 mmHg 72%
01:00 +10°C° 0 mm 4 mps 747 mmHg 73%
02:00 +8°C° 0 mm 4 mps 747 mmHg 72%
03:00 +8°C° 0 mm 4 mps 747 mmHg 72%
04:00 +8°C° 0 mm 4 mps 746 mmHg 71%
05:00 +9°C° 0 mm 5 mps 746 mmHg 71%
06:00 +10°C° 0 mm 6 mps 746 mmHg 71%
07:00 +12°C° 0 mm 7 mps 746 mmHg 70%
08:00 +14°C° 0 mm 7 mps 746 mmHg 67%
09:00 +16°C° 0 mm 7 mps 746 mmHg 63%
10:00 +18°C° 0 mm 7 mps 746 mmHg 60%
11:00 +20°C° 0 mm 7 mps 746 mmHg 59%
12:00 +21°C° 0 mm 6 mps 746 mmHg 58%
13:00 +22°C° 0 mm 6 mps 746 mmHg 56%
14:00 +22°C° 0 mm 5 mps 746 mmHg 59%
15:00 +22°C° 0 mm 5 mps 746 mmHg 61%
16:00 +23°C° 0 mm 5 mps 747 mmHg 63%
17:00 +21°C° 0 mm 5 mps 747 mmHg 69%
18:00 +20°C° 0 mm 4 mps 746 mmHg 75%
19:00 +18°C° 0 mm 4 mps 746 mmHg 81%
20:00 +17°C° 0 mm 4 mps 746 mmHg 83%
21:00 +16°C° 0 mm 3 mps 746 mmHg 85%
22:00 +14°C° 0 mm 3 mps 746 mmHg 87%
23:00 +13°C° 0 mm 3 mps 746 mmHg 88%

11 May, Tuesday

Time Temperature Precipitation Wind Pressure Humidity
00:00 +13°C° 0 mm 3 mps 746 mmHg 89%
01:00 +13°C° 0 mm 4 mps 745 mmHg 89%
02:00 +13°C° 0 mm 4 mps 745 mmHg 87%
03:00 +13°C° 0 mm 4 mps 744 mmHg 85%
04:00 +13°C° 0 mm 4 mps 744 mmHg 83%
05:00 +14°C° 0 mm 5 mps 744 mmHg 81%
06:00 +15°C° 0 mm 5 mps 744 mmHg 79%
07:00 +16°C° 0 mm 5 mps 744 mmHg 78%
08:00 +19°C° 0 mm 5 mps 744 mmHg 73%
09:00 +20°C° 0 mm 5 mps 744 mmHg 68%
10:00 +21°C° 0 mm 5 mps 744 mmHg 63%
11:00 +22°C° 0 mm 6 mps 744 mmHg 62%
12:00 +23°C° 0 mm 6 mps 744 mmHg 61%
13:00 +23°C° 0 mm 6 mps 744 mmHg 60%
14:00 +23°C° 0 mm 5 mps 744 mmHg 62%
15:00 +23°C° 0 mm 5 mps 743 mmHg 64%
16:00 +23°C° 0 mm 5 mps 743 mmHg 66%
17:00 +22°C° 0 mm 5 mps 743 mmHg 70%
18:00 +21°C° 0 mm 4 mps 743 mmHg 74%
19:00 +19°C° 0 mm 4 mps 742 mmHg 79%
20:00 +19°C° 0 mm 4 mps 742 mmHg 78%
21:00 +18°C° 0 mm 4 mps 742 mmHg 77%
22:00 +17°C° 0 mm 4 mps 742 mmHg 76%
23:00 +16°C° 0 mm 5 mps 742 mmHg 75%

12 May, Wednesday

Time Temperature Precipitation Wind Pressure Humidity
00:00 +16°C° 0 mm 5 mps 741 mmHg 74%
01:00 +16°C° 0 mm 5 mps 741 mmHg 73%
02:00 +15°C° 0 mm 5 mps 741 mmHg 74%
03:00 +15°C° 0 mm 4 mps 741 mmHg 75%
04:00 +15°C° 0 mm 4 mps 740 mmHg 77%
05:00 +17°C° 0 mm 4 mps 740 mmHg 76%
06:00 +18°C° 0 mm 4 mps 740 mmHg 75%
07:00 +19°C° 0 mm 5 mps 740 mmHg 74%
08:00 +20°C° 0 mm 5 mps 740 mmHg 70%
09:00 +21°C° 0 mm 5 mps 740 mmHg 67%
10:00 +22°C° 0 mm 5 mps 740 mmHg 63%
11:00 +23°C° 0 mm 5 mps 740 mmHg 61%
12:00 +24°C° 0 mm 6 mps 740 mmHg 59%
13:00 +26°C° 0 mm 6 mps 740 mmHg 57%
14:00 +25°C° 0.3 mm 5 mps 739 mmHg 62%
15:00 +23°C° 0.3 mm 4 mps 739 mmHg 67%
16:00 +23°C° 0.3 mm 4 mps 739 mmHg 71%
17:00 +20°C° 3 mm 4 mps 738 mmHg 80%
18:00 +18°C° 3 mm 4 mps 738 mmHg 88%
19:00 +16°C° 3 mm 3 mps 738 mmHg 96%
20:00 +15°C° 2.4 mm 4 mps 739 mmHg 96%
21:00 +14°C° 2.4 mm 4 mps 739 mmHg 96%
22:00 +14°C° 2.4 mm 4 mps 739 mmHg 97%
23:00 +14°C° 0.2 mm 4 mps 739 mmHg 97%
Show more